Simultaneous Nadir Overpasses (SNOs) Predictions

Prediction of SNOs between AQUA and GOES-15 Satellite Orbit:

Table of predicted SNOs for the next 14.0 days since TLE Epoch: 9/18/2020
Index Date Time (AQUA) AQUA Lat,Lon GOES-15 Lat,Lon Distance(km) Time Diff (sec)
1 09/18/2020 22:10:24 -0.00,-128.68 0.11,-128.25 49.67 80
2 09/20/2020 21:58:13 0.66,-125.74 0.11,-128.29 290.50 80
3 09/21/2020 10:19:28 0.44,-130.89 -0.11,-128.34 290.45 80
4 09/23/2020 10:07:17 -0.23,-127.94 -0.12,-128.37 48.87 80
5 09/25/2020 09:55:05 -0.84,-124.99 -0.12,-128.40 387.56 80
6 09/25/2020 22:16:29 -0.29,-130.17 0.12,-128.36 206.43 80
7 09/27/2020 22:04:18 0.39,-127.23 0.13,-128.39 132.16 80
8 09/28/2020 10:25:33 0.72,-132.38 -0.13,-128.43 449.63 80
9 09/29/2020 21:52:06 1.01,-124.27 0.13,-128.41 470.74 80
10 09/30/2020 10:13:21 0.10,-129.43 -0.13,-128.45 111.06 80
11 10/02/2020 10:01:10 -0.58,-126.48 -0.13,-128.48 227.44 80
